Flag for Switzerland Weather past 2 weeks in Delémont, Jura, Switzerland

Now
65 °F

Mild.


Feels Like: 65 °F
Forecast: 47 / 61 °F
Wind: 6 mph from West

Location: Grenchen

Current Time: Sep 21, 2014 at 6:57:01 PM

Latest Report: Sep 21, 2014 at 6:00 PM


Visibility: N/A

Pressure: 30.01 "Hg

Humidity: 73%

Dew point: 56 °F

Location of DelémontLocation

Historic Weather in Delémont — Graph

°F

Delémont temperature yesterday

Maximum temperature yesterday: 73 °F (at 3:00 PM)
Minimum temperature yesterday: 60 °F (at 11:00 PM)
Average temperature yesterday: 64 °F

Past Weeks' High & Low Weather Summary

 TemperatureHumidityPressure
High79 °F (Sep 7, 5:00 PM)100% (Sep 7, 8:00 AM)30.14 "Hg (Sep 7, 8:00 AM)
Low49 °F (Sep 12, 7:00 AM)42% (Sep 16, 5:00 PM)29.80 "Hg (Sep 17, 4:00 PM)
Average62 °F81%29.99 "Hg
* Reported Sep 6 5:00 PM — Sep 21 5:00 PM, Delémont, Weather by CustomWeather, © 2014

Note: Actual official high and low records may vary slightly from our data, if they occured in-between our weather recording intervals... More about our weather records

Advertising

Delémont weather history for previous 24 hours

 ConditionsComfort  
Time TempWeatherWind HumidityBarometerVisibility
5:00 PM
Sep 21
65 °FMild.15 mph70%30.00 "HgN/A
4:00 PM65 °FMild.14 mph72%30.00 "HgN/A
3:00 PM68 °FMild.12 mph70%29.98 "HgN/A
2:00 PM68 °FMild.10 mph77%29.99 "HgN/A
1:00 PM66 °FMild.6 mph87%30.02 "HgN/A
12:00 PM67 °FMild.6 mph76%30.03 "HgN/A
11:00 AM65 °FMild.2 mph80%30.06 "HgN/A
10:00 AM62 °FCool.2 mph86%30.06 "HgN/A
9:00 AM60 °FCool.2 mph97%30.07 "HgN/A
8:00 AM58 °FCool.2 mph99%30.08 "HgN/A
7:00 AM58 °FCool.1 mph100%30.08 "HgN/A
6:00 AM58 °FCool.3 mph100%30.07 "HgN/A
5:00 AM58 °FCool.6 mph100%30.05 "HgN/A
4:00 AM57 °FCool.3 mph100%30.07 "HgN/A
3:00 AM56 °FCool.1 mph100%30.08 "HgN/A
2:00 AM57 °FCool.No wind99%30.07 "HgN/A
1:00 AM58 °FCool.1 mph98%30.08 "HgN/A
12:00 AM59 °FCool.1 mph99%30.07 "HgN/A
11:00 PM
Sep 20
60 °FCool.1 mph98%30.07 "HgN/A
10:00 PM61 °FCool.1 mph96%30.06 "HgN/A
9:00 PM62 °FCool.1 mph93%30.05 "HgN/A
8:00 PM66 °FMild.1 mph93%30.02 "HgN/A
7:00 PM68 °FMild.2 mph88%30.00 "HgN/A
Weather by CustomWeather, © 2014

See weather overviewHow to use our weather pages